Location: *
(28.3744°N, 81.5492°W)
Time: 15:04:41
(UTC+00:00)

SL-16 R/B - Pass Details

Date: 15 June 2025
Orbit: 985 x 1006 km, 99.7° (Epoch: 16 July)

Event Time Altitude Azimuth Distance (km) Brightness Sun altitude
Rises 08:50:29 0° 163° (SSE) 3,684 5.3 -18.7°
Reaches altitude 10° 08:52:56 10° 162° (SSE) 2,740 4.6 -18.3°
Maximum altitude 08:59:05 84° 75° (ENE) 1,001 2.6 -17.3°
Drops below altitude 10° 09:05:19 10° 348° (NNW) 2,766 5.2 -16.2°
Sets 09:07:48 0° 348° (NNW) 3,721 5.9 -15.8°
